Location: Strawberry
(45.6646°N, 111.9596°W)
Time: 12:29:02
(UTC+00:00)

Transit 4A - Pass Details

Date: 11 October 2022
Orbit: 871 x 973 km, 66.8° (Epoch: 26 November)

Event Time Altitude Azimuth Distance (km) Brightness Sun altitude
Exits shadow 10:06:44 - 340° (NNW) 2,904 10.6 -36.5°
Reaches altitude 10° 10:08:08 10° 350° (N) 2,551 10.4 -36.3°
Maximum altitude 10:11:57 17° 31° (NNE) 2,060 10.2 -35.8°
Drops below altitude 10° 10:15:43 10° 71° (ENE) 2,525 10.9 -35.2°
Sets 10:19:06 0° 91° (E) 3,458 11.6 -34.7°
